Location: ????????
(60.4333°N, 46.4710°E)
Time: 03:19:41
(UTC+00:00)

Cosmos 1633 - Pass Details

Date: 25 November 2020
Orbit: 462 x 479 km, 82.5° (Epoch: 19 January)

Event Time Altitude Azimuth Distance (km) Brightness Sun altitude
Rises 13:30:30 0° 341° (NNW) 2,526 6.1 -9.8°
Reaches altitude 10° 13:32:43 10° 331° (NNW) 1,646 5.3 -10.0°
Maximum altitude 13:35:57 32° 267° (W) 838 4.5 -10.4°
Drops below altitude 10° 13:39:10 10° 203° (SSW) 1,643 6.0 -10.8°
Sets 13:41:23 0° 194° (SSW) 2,519 6.8 -11.0°
